Location: Berbisdorf
(50.7638°N, 12.9442°E)
Time: 23:04:20
(UTC+00:00)

STARLINK-1317 - Visible Passes

Search period start: 01 October 2020 00:00
Search period end: 11 October 2020 00:00
Orbit: 549 x 550 km, 53.0° (Epoch: 01 October)

Date Brightness Start Highest point End Pass type
(mag) Time Alt. Az. Time Alt. Az. Time Alt. Az.
01 Oct 6.4 04:25:12 10° S 04:27:41 15° SE 04:30:09 10° E visible
02 Oct 6.1 04:19:03 10° S 04:22:03 20° SE 04:25:05 10° E visible
03 Oct 5.7 04:13:00 10° SSW 04:16:23 25° SE 04:19:47 10° E visible
04 Oct 5.3 04:07:01 10° SSW 04:10:40 30° SE 04:14:20 10° E visible
05 Oct 4.8 04:01:03 10° SSW 04:04:53 38° SE 04:08:44 10° ENE visible
06 Oct 6.3 02:20:03 11° SE 02:20:19 11° SE 02:21:32 10° ESE visible
06 Oct 4.4 03:55:42 14° SW 03:59:03 46° SSE 04:03:02 10° ENE visible
07 Oct 6.2 02:14:48 14° SE 02:14:48 14° SE 02:16:35 10° E visible
07 Oct 4.1 03:50:27 20° SW 03:53:10 56° SSE 03:57:14 10° ENE visible
08 Oct 6.1 02:09:24 16° ESE 02:09:24 16° ESE 02:11:07 10° E visible
08 Oct 3.8 03:45:02 26° SW 03:47:13 67° SSE 03:51:21 10° ENE visible
09 Oct 6.1 02:03:52 18° ESE 02:03:52 18° ESE 02:05:23 10° E visible
09 Oct 3.6 03:39:29 34° WSW 03:41:12 79° SSE 03:45:22 10° ENE visible
10 Oct 6.2 01:58:11 17° E 01:58:11 17° E 01:59:30 10° E visible
10 Oct 3.5 03:33:49 43° WSW 03:35:08 89° SSE 03:39:18 10° ENE visible
